Regional Weather Roundup
Issued by NWS Grand Forks, ND

Home | Current Version | Previous Version | Text Only | Print | Product List | Glossary Off
Versions: 1 2 3 4 5 6 7 8 9 10 11 12 13 14 15 16 17 18 19 20 21 22 23 24 25 26 27 28 29 30 31 32 33 34 35 36 37 38 39 40 41 42 43 44 45 46 47 48 49 50

000
ASUS43 KFGF 231610
RWRFGF
PRAIRIE TO PINES  WEATHER ROUNDUP
NATIONAL WEATHER SERVICE EASTERN NORTH DAKOTA/GRAND FORKS ND
1100 AM CDT TUE SEP 23 2014

 **SATELLITE DATA USED TO AUGMENT SKY COVER AT AUTOMATED STATIONS**
 *****  WEATHER ACROSS EASTERN NORTH DAKOTA  *****

CITY           SKY/WX    TMP DP  RH WIND       PRES   REMARKS
GRAND FORKS    MOSUNNY   67  54  63 S13       30.02S
GRAND FRKS AFB SUNNY     66  55  66 S12       30.02S
GRAND FRKS NWS   N/A     66 N/A N/A S14         N/A
DEVILS LAKE    SUNNY     66  52  59 S17       29.96S
FARGO          SUNNY     66  52  60 SE13      30.06R
WAHPETON ARPT  MOSUNNY   64  50  59 S13       30.08F
$$

 ***** WEATHER ACROSS CENTRAL AND WESTERN NORTH DAKOTA  *****

CITY           SKY/WX    TMP DP  RH WIND       PRES   REMARKS
BISMARCK       CLOUDY    68  58  70 SE14      29.94S
MINOT          SUNNY     66  55  67 S10       29.88F
JAMESTOWN      MOSUNNY   66  56  70 S17       30.00S
MINOT AFB      SUNNY     66  57  74 S12       29.88F
GARRISON         N/A     65  56  72 S13G20    29.90F
WILLISTON      SUNNY     65  52  62 S6        29.87S
DICKINSON      SUNNY     68  58  70 S12       29.88S
HETTINGER      MOSUNNY   66  56  70 SE8       29.92S
$$

 *****  OTHER AIRPORT OBSERVATIONS IN OUR AREA  *****

CITY           SKY/WX    TMP DP  RH WIND       PRES   REMARKS
WALHALLA         N/A     64  57  77 SE12      29.97S
GRAFTON AIRPOR FAIR      64  54  68 S15G22    30.00S
VALLEY CITY AR PTSUNNY   64  59  82 S13       30.03S
CANDO          FAIR      66  55  68 S10       29.96S
CAVALIER APRT  FAIR      64  54  68 S15       29.98F
GWINNER        SUNNY     72  57  60 S17G23    30.05S
SHEYENNE NWR     N/A     64  53  68 S9        29.95S
ROLLA          FAIR      64  54  68 S17G26    29.94S
 ***** THE ABOVE OBSERVATIONS ARE NON NWS ARE NOT QUALITY
       CONTROLLED AND MAY MIS-REPORT RAIN FOR SNOW...
$$

  *****  WEATHER ACROSS NORTHERN MINNESOTA  *****

CITY           SKY/WX    TMP DP  RH WIND       PRES   REMARKS
FLAG ISLAND    SUNNY     61  54  77 S12       30.06S
WARROAD        SUNNY     68  57  68 S7        30.06F
ROSEAU         SUNNY     68  55  64 S9        30.05S
HALLOCK        SUNNY     68  54  60 S17       30.00S
THF RVR FALLS  SUNNY     66  54  63 S13       30.05F
BAUDETTE       SUNNY     67  53  61 S7        30.09F
WASKISH        SUNNY     68  55  64 CALM      30.10F
CROOKSTON      SUNNY     66  54  63 S13       30.05S
STEPHEN NDAWN    N/A     66  55  68 S13         N/A
GREENBUSH NDAW   N/A     70  54  56 S12         N/A
$$
  *****  WEATHER ACROSS CENTRAL AND WEST MINNESOTA  *****

CITY           SKY/WX    TMP DP  RH WIND       PRES   REMARKS
FOSSTON        SUNNY     70  52  52 SE7       30.08S
BEMIDJI        SUNNY     66  51  59 S12       30.11S
PARK RAPIDS    SUNNY     64  51  62 S13       30.13S
ELBOW LAKE     FAIR      64  53  67 S13       30.11F
WADENA         SUNNY     66  52  59 S13       30.13S
DETROIT LAKES  SUNNY     64  54  68 S10       30.11S
MOORHEAD       SUNNY     66  55  68 S13       30.07S
FERGUS FALLS   MOSUNNY   64  50  59 S13       30.10S
MORRIS MN      MOSUNNY   64  54  68 S13       30.12S
STAPLES        SUNNY     63  50  63 S10       30.15S HAZE
$$
  *****  WEATHER ELSEWHERE ACROSS MINNESOTA  *****

CITY           SKY/WX    TMP DP  RH WIND       PRES   REMARKS
DULUTH         SUNNY     67  51  56 SW9       30.22R
INTRNTL FALLS  SUNNY     67  51  56 S8        30.13F
ELY            SUNNY     68  50  52 S9        30.19F
CLOQUET        SUNNY     64  52  63 S6        30.22S
WHEATON        PTSUNNY   64  54  68 SE12      30.11S
BRAINERD       SUNNY     66  52  60 S15G21    30.17F
HIBBING        SUNNY     65  52  62 S6        30.19F
ALEXANDRIA     MOSUNNY   65  53  65 S12       30.15S
SAINT CLOUD    MOSUNNY   69  51  52 S12       30.19S
MINNEAPOLIS    MOSUNNY   67  53  61 S8        30.23S
$$

  *****  WEATHER ACROSS SOUTH DAKOTA  *****

CITY           SKY/WX    TMP DP  RH WIND       PRES   REMARKS
SIOUX FALLS    LGT RAIN  58  55  90 SE12      30.14S
BROOKINGS      NOT AVBL
WATERTOWN      CLOUDY    59  53  80 S16G25    30.10S
HURON          RAIN      57  55  93 SE16G25   30.04S FOG
SISSETON         N/A     64  55  72 S8        30.07S
ABERDEEN       LGT RAIN  61  57  87 S21G26    30.03S
MITCHELL       HVY RAIN  57  56  96 SE15G24   30.07S FOG
PIERRE         CLOUDY    63  56  78 SE16      29.92S
MOBRIDGE       CLOUDY    65  57  75 SE16      29.93S
RAPID CITY     CLOUDY    66  55  67 W3        29.94S
$$

  *****  SOME WEATHER IN NEARBY STATES *****

CITY           SKY/WX    TMP DP  RH WIND       PRES   REMARKS
GLASGOW MT     SUNNY     62  51  67 W3        29.87S
GREAT FALLS MT MOSUNNY   69  49  48 SW13      30.01R
CHEYENNE WY    SUNNY     68  43  40 NW10      30.16F
SCOTTSBLUFF NE SUNNY     68  51  54 VRB6      30.04S
OMAHA NE       LGT RAIN  61  54  77 S14       30.18F
DES MOINES IA  CLOUDY    65  52  62 SE9       30.26F
DAVENPORT IA   SUNNY     67  46  47 S9        30.34S
CHICAGO IL     SUNNY     62  45  53 SW7       30.34S
EAU CLAIRE WI  SUNNY     66  53  63 VRB6      30.27S
LA CROSSE WI   SUNNY    N/A N/A N/A SE6       30.30S
$$

  *****  SOME NATIONAL WEATHER *****

CITY           SKY/WX    TMP DP  RH WIND       PRES   REMARKS
LA GUARDIA NY  MOSUNNY   64  41  42 NW3       30.33S
RALEIGH NC     CLOUDY    60  48  64 NE8       30.33S
ATLANTA GA     PTSUNNY   70  55  59 E12       30.23R
NEW ORLEANS LA MOSUNNY   79  58  48 NE13      30.11R
OKLAHOMA CITY  MOSUNNY   73  52  47 S20       30.22S
ALBUQUERQUE NM MOSUNNY   66  58  75 SW7       30.29S
SALT LAKE CITY MOSUNNY   70  54  56 SE8       30.16R
LOS ANGELES CA MOSUNNY   67  63  88 SW3       29.99R
BOISE ID       PTSUNNY   70  51  51 SE10      30.02R
SEATTLE WA     CLOUDY    61  57  87 S3        29.84S
$$

*** WEATHER ACROSS MANITOBA...SASKATCHEWAN AND ONTARIO ***
                ***ONTARIO***

CITY           SKY/WX    TMP DP  RH WIND       PRES   REMARKS
GERALDTON      CLOUDY    52  52 100 SE7       30.23  FOG
THUNDER BAY    SUNNY     68  52  56 E3        30.19S
SIOUX LOOKOUT  MOSUNNY   66  52  59 S7        30.13S
TORONTO        MOSUNNY   68  50  52 W10       30.28S
BIG TROUT LK   CLOUDY    52  48  87 S16G22    30.02F FOG
PICKLE LAKE    MOSUNNY   64  54  68 S7        30.10S
DRYDEN         SUNNY     66  52  59 S12       30.11F
KENORA         SUNNY     66  52  59 S10       30.09S
$$
                *** MANITOBA***

CITY           SKY/WX    TMP DP  RH WIND       PRES   REMARKS
BRANDON        SUNNY     64  55  72 SE6       29.91S
DAUPHIN        SUNNY     72  54  53 NE3       29.84F
ISLAND LAKE    MOSUNNY   66  52  59 S6        29.88F
PILOT MOUND    NOT AVBL
THE PAS        MOSUNNY   68  52  56 S10       29.71S
THOMPSON       PTSUNNY   64  52  63 S9        29.69F
WINNIPEG       SUNNY     68  54  60 S20G29    29.97S
LYNN LAKE      SUNNY     63  50  63 SW9       29.62F
CHURCHILL      CLOUDY    45  43  93 S15G22    29.64F
GILLAM         PTSUNNY   61  50  67 S14       29.72F
$$
                ***SASKATCHEWAN***

CITY           SKY/WX    TMP DP  RH WIND       PRES   REMARKS
ESTEVAN        SUNNY     64  54  68 S7        29.86F
KINDERSLEY     MOSUNNY   59  48  67 NW9       29.82R
LLOYDMINSTER   PTSUNNY   63  46  55 N12G18    29.81R
PRINCE ALBERT  PTSUNNY   63  54  72 W5        29.72S
REGINA         MOSUNNY   63  54  72 SE8       29.82F
YORKTON        SUNNY     66  52  59 S9        29.82F
N. BATTLEFORD  SUNNY     61  48  63 NW9       29.78S
LA RONGE       NOT AVBL
SASKATOON      PTSUNNY   64  52  63 SW7       29.77R
SWIFT CURRENT  SUNNY     68  48  49 W12       29.83S
$$
NOTE: THESE ARE AUTOMATED STATIONS WITH LIMITED QUALITY CONTROL
      "FAIR" INDICATES FEW OR NO CLOUDS BELOW 12,000 FEET WITH NO
      SIGNIFICANT WEATHER AND/OR OBSTRUCTIONS TO VISIBILITY.
      SKY/WX - SKY CONDITION AND SIGNIFICANT WEATHER.
      TMP - AIR TEMPERATURE.    DP   - DEWPOINT TEMPERATURE.
      RH  - RELATIVE HUMIDITY.  PRES - PRESSURE.
      HX  - HEAT INDEX.         WCI  - WIND CHILL INDEX.
$


USA.gov is the U.S. government's official web portal to all federal, state and local government web resources and services.